When you browse on this site, cookies collect data to enhance your experience and personalize the content and advertising you see.
Visit our Privacy Policy to learn more. By continuing to use the site, you agree to this use of cookies and data.
  • In Hungary
  • List of Countries
  • For 7 days
  • Water Temperature
  • Satellite Maps
  • Weather Map
  • News
  • Weather Widgets
  • user-avatar
    Login

    Hourly Weather Princeton

    Today, 23 February, Saturday

    Time Temperature Precipitation Wind Pressure Humidity
    00:00 +1°C° 0 mm 2 mps 770 mmHg 72%
    01:00 +1°C° 0 mm 1 mps 770 mmHg 73%
    02:00 +1°C° 0 mm 1 mps 770 mmHg 74%
    03:00 +1°C° 0 mm 1 mps 770 mmHg 75%
    04:00 +1°C° 0 mm 1 mps 770 mmHg 76%
    05:00 +1°C° 0 mm 1 mps 770 mmHg 77%
    06:00 +1°C° 0 mm 1 mps 770 mmHg 78%
    07:00 +1°C° 0 mm 1 mps 770 mmHg 79%
    08:00 +2°C° 0 mm 1 mps 770 mmHg 73%
    09:00 +2°C° 0 mm 2 mps 770 mmHg 66%
    10:00 +4°C° 0 mm 2 mps 770 mmHg 60%
    11:00 +4°C° 0 mm 2 mps 770 mmHg 57%
    12:00 +5°C° 0 mm 2 mps 769 mmHg 54%
    13:00 +6°C° 0 mm 2 mps 769 mmHg 52%
    14:00 +6°C° 0 mm 2 mps 768 mmHg 54%
    15:00 +6°C° 0 mm 2 mps 768 mmHg 57%
    16:00 +6°C° 0 mm 2 mps 767 mmHg 59%
    17:00 +5°C° 0 mm 2 mps 767 mmHg 63%
    18:00 +4°C° 0 mm 3 mps 766 mmHg 67%
    19:00 +3°C° 0 mm 3 mps 766 mmHg 70%
    20:00 +3°C° 0.1 mm 3 mps 765 mmHg 74%
    21:00 +4°C° 0.1 mm 2 mps 764 mmHg 78%
    22:00 +4°C° 0.1 mm 2 mps 764 mmHg 81%
    23:00 +4°C° 0.1 mm 2 mps 763 mmHg 84%

    Tomorrow, 24 February, Sunday

    Time Temperature Precipitation Wind Pressure Humidity
    00:00 +4°C° 0.1 mm 2 mps 762 mmHg 87%
    01:00 +3°C° 0.1 mm 3 mps 761 mmHg 90%
    02:00 +5°C° 0.4 mm 2 mps 759 mmHg 93%
    03:00 +5°C° 0.4 mm 2 mps 758 mmHg 95%
    04:00 +6°C° 0.4 mm 2 mps 757 mmHg 98%
    05:00 +6°C° 3.3 mm 2 mps 755 mmHg 98%
    06:00 +7°C° 3.3 mm 2 mps 754 mmHg 98%
    07:00 +8°C° 3.3 mm 2 mps 752 mmHg 98%
    08:00 +9°C° 2.1 mm 3 mps 751 mmHg 98%
    09:00 +9°C° 2.1 mm 3 mps 750 mmHg 97%
    10:00 +10°C° 2.1 mm 3 mps 748 mmHg 97%
    11:00 +11°C° 0.1 mm 4 mps 747 mmHg 96%
    12:00 +12°C° 0.1 mm 4 mps 746 mmHg 95%
    13:00 +12°C° 0.1 mm 4 mps 744 mmHg 94%
    14:00 +14°C° 0.3 mm 6 mps 743 mmHg 87%
    15:00 +15°C° 0.3 mm 7 mps 742 mmHg 80%
    16:00 +17°C° 0.3 mm 8 mps 741 mmHg 73%
    17:00 +13°C° 0.1 mm 8 mps 742 mmHg 69%
    18:00 +11°C° 0.1 mm 8 mps 743 mmHg 64%
    19:00 +7°C° 0.1 mm 9 mps 744 mmHg 60%
    20:00 +6°C° 0 mm 9 mps 744 mmHg 60%
    21:00 +5°C° 0 mm 8 mps 745 mmHg 60%
    22:00 +4°C° 0 mm 8 mps 746 mmHg 60%
    23:00 +4°C° 0 mm 8 mps 746 mmHg 58%

    Day after tomorrow, 25 February, Monday

    Time Temperature Precipitation Wind Pressure Humidity
    00:00 +2°C° 0 mm 9 mps 747 mmHg 57%
    01:00 +1°C° 0 mm 9 mps 748 mmHg 55%
    02:00 0°C° 0 mm 9 mps 748 mmHg 55%
    03:00 -1°C° 0 mm 9 mps 749 mmHg 54%
    04:00 -3°C° 0 mm 9 mps 749 mmHg 54%
    05:00 -3°C° 0 mm 9 mps 750 mmHg 52%
    06:00 -4°C° 0 mm 8 mps 751 mmHg 50%
    07:00 -4°C° 0 mm 8 mps 752 mmHg 49%
    08:00 -4°C° 0 mm 9 mps 753 mmHg 45%
    09:00 -3°C° 0 mm 10 mps 754 mmHg 41%
    10:00 -2°C° 0 mm 11 mps 755 mmHg 38%
    11:00 -2°C° 0 mm 11 mps 756 mmHg 36%
    12:00 0°C° 0 mm 10 mps 756 mmHg 35%
    13:00 0°C° 0 mm 10 mps 757 mmHg 34%
    14:00 0°C° 0 mm 10 mps 757 mmHg 33%
    15:00 0°C° 0 mm 10 mps 758 mmHg 33%
    16:00 0°C° 0 mm 9 mps 759 mmHg 33%
    17:00 -1°C° 0 mm 8 mps 760 mmHg 35%
    18:00 -2°C° 0 mm 7 mps 761 mmHg 37%
    19:00 -4°C° 0 mm 6 mps 762 mmHg 39%
    20:00 -4°C° 0 mm 6 mps 763 mmHg 39%
    21:00 -5°C° 0 mm 6 mps 763 mmHg 39%
    22:00 -5°C° 0 mm 6 mps 764 mmHg 39%
    23:00 -5°C° 0 mm 6 mps 764 mmHg 39%

    26 February, Tuesday

    Time Temperature Precipitation Wind Pressure Humidity
    00:00 -6°C° 0 mm 6 mps 765 mmHg 38%
    01:00 -6°C° 0 mm 5 mps 765 mmHg 37%
    02:00 -6°C° 0 mm 5 mps 765 mmHg 37%
    03:00 -6°C° 0 mm 5 mps 766 mmHg 37%
    04:00 -6°C° 0 mm 5 mps 766 mmHg 37%
    05:00 -6°C° 0 mm 5 mps 767 mmHg 38%
    06:00 -7°C° 0 mm 4 mps 767 mmHg 38%
    07:00 -7°C° 0 mm 4 mps 768 mmHg 39%
    08:00 -6°C° 0 mm 5 mps 768 mmHg 36%
    09:00 -5°C° 0 mm 5 mps 768 mmHg 33%
    10:00 -5°C° 0 mm 6 mps 769 mmHg 30%
    11:00 -4°C° 0 mm 6 mps 769 mmHg 28%
    12:00 -3°C° 0 mm 6 mps 769 mmHg 25%
    13:00 -2°C° 0 mm 6 mps 768 mmHg 22%
    14:00 -2°C° 0 mm 6 mps 768 mmHg 22%
    15:00 -2°C° 0 mm 6 mps 768 mmHg 22%
    16:00 -1°C° 0 mm 5 mps 769 mmHg 22%
    17:00 -2°C° 0 mm 5 mps 769 mmHg 25%
    18:00 -3°C° 0 mm 4 mps 770 mmHg 28%
    19:00 -4°C° 0 mm 3 mps 770 mmHg 31%
    20:00 -5°C° 0 mm 3 mps 771 mmHg 32%
    21:00 -5°C° 0 mm 3 mps 771 mmHg 34%
    22:00 -5°C° 0 mm 3 mps 771 mmHg 35%
    23:00 -6°C° 0 mm 3 mps 771 mmHg 36%

    27 February, Wednesday

    Time Temperature Precipitation Wind Pressure Humidity
    00:00 -5°C° 0 mm 2 mps 771 mmHg 36%
    01:00 -5°C° 0 mm 2 mps 771 mmHg 37%
    02:00 -5°C° 0 mm 2 mps 771 mmHg 37%
    03:00 -3°C° 0 mm 1 mps 770 mmHg 36%
    04:00 -4°C° 0 mm 1 mps 770 mmHg 36%
    05:00 -3°C° 0 mm 1 mps 770 mmHg 35%
    06:00 -3°C° 0 mm 1 mps 770 mmHg 35%
    07:00 -3°C° 0 mm 1 mps 770 mmHg 34%
    08:00 -2°C° 0 mm 1 mps 770 mmHg 32%
    09:00 -2°C° 0 mm 1 mps 769 mmHg 30%
    10:00 -3°C° 0 mm 2 mps 769 mmHg 28%
    11:00 -1°C° 0 mm 2 mps 768 mmHg 28%
    12:00 0°C° 0 mm 3 mps 767 mmHg 28%
    13:00 +2°C° 0 mm 3 mps 765 mmHg 28%
    14:00 +1°C° 0 mm 4 mps 764 mmHg 35%
    15:00 +3°C° 0 mm 4 mps 762 mmHg 41%
    16:00 +4°C° 0 mm 4 mps 761 mmHg 48%
    17:00 +2°C° 0 mm 3 mps 760 mmHg 58%
    18:00 +1°C° 0 mm 3 mps 759 mmHg 67%
    19:00 +1°C° 0 mm 2 mps 759 mmHg 77%
    20:00 +1°C° 0 mm 2 mps 758 mmHg 80%
    21:00 +2°C° 0 mm 2 mps 758 mmHg 84%
    22:00 +2°C° 0 mm 2 mps 757 mmHg 87%
    23:00 +3°C° 0 mm 2 mps 757 mmHg 86%

    28 February, Thursday

    Time Temperature Precipitation Wind Pressure Humidity
    00:00 +3°C° 0 mm 3 mps 757 mmHg 85%
    01:00 +3°C° 0 mm 4 mps 757 mmHg 84%
    02:00 +3°C° 0 mm 3 mps 758 mmHg 85%
    03:00 +2°C° 0 mm 3 mps 758 mmHg 85%
    04:00 +1°C° 0 mm 3 mps 759 mmHg 86%
    05:00 0°C° 0 mm 3 mps 760 mmHg 82%
    06:00 -1°C° 0 mm 2 mps 760 mmHg 77%
    07:00 -2°C° 0 mm 2 mps 761 mmHg 72%
    08:00 -1°C° 0 mm 2 mps 761 mmHg 64%
    09:00 0°C° 0 mm 3 mps 761 mmHg 56%
    10:00 +1°C° 0 mm 3 mps 762 mmHg 48%
    11:00 +4°C° 0 mm 2 mps 762 mmHg 44%
    12:00 +5°C° 0 mm 2 mps 761 mmHg 41%
    13:00 +7°C° 0 mm 1 mps 761 mmHg 38%
    14:00 +7°C° 0 mm 1 mps 761 mmHg 38%
    15:00 +6°C° 0 mm 2 mps 760 mmHg 39%
    16:00 +6°C° 0 mm 2 mps 760 mmHg 39%
    17:00 +5°C° 0 mm 2 mps 760 mmHg 46%
    18:00 +4°C° 0 mm 2 mps 760 mmHg 53%
    19:00 +2°C° 0 mm 2 mps 761 mmHg 60%
    20:00 +2°C° 0 mm 2 mps 760 mmHg 63%
    21:00 +2°C° 0 mm 2 mps 760 mmHg 65%
    22:00 +2°C° 0 mm 2 mps 760 mmHg 67%
    23:00 +2°C° 0 mm 2 mps 760 mmHg 70%
    Show more